Time,TemperatureF,DewpointF,PressureIn,WindDirection,WindDirectionDegrees,WindSpeedMPH,WindSpeedGustMPH,Humidity,HourlyPrecipIn,Conditions,Clouds,dailyrainin,SoftwareType,DateUTC
2013-09-21 00:07:00,59.9,46.4,30.18,SSW,202,6.0,11.1,62,0.00,,,0.00,WUHU21636XXSP,2013-09-21 05:07:00,
2013-09-21 00:17:00,59.9,46.8,30.18,South,180,6.2,11.4,62,0.00,,,0.00,WUHU21636XXSP,2013-09-21 05:17:00,
2013-09-21 00:27:00,59.7,46.6,30.17,SSW,202,4.2,9.3,62,0.00,,,0.00,WUHU21636XXSP,2013-09-21 05:27:00,
2013-09-21 00:37:00,59.5,46.8,30.17,SSW,202,5.1,8.7,63,0.00,,,0.00,WUHU21636XXSP,2013-09-21 05:37:00,
2013-09-21 00:47:00,59.4,46.2,30.18,SSW,202,0.0,5.1,63,0.00,,,0.00,WUHU21636XXSP,2013-09-21 05:47:00,
2013-09-21 00:57:00,59.2,46.4,30.17,SSW,202,2.9,7.6,63,0.00,,,0.00,WUHU21636XXSP,2013-09-21 05:57:00,
2013-09-21 01:07:00,59.0,45.9,30.17,SSW,202,3.1,9.3,62,0.00,,,0.00,WUHU21636XXSP,2013-09-21 06:07:00,
2013-09-21 01:17:00,59.2,46.4,30.17,SSW,202,1.1,9.3,63,0.00,,,0.00,WUHU21636XXSP,2013-09-21 06:17:00,
2013-09-21 01:27:00,59.0,46.2,30.17,South,180,3.8,7.1,63,0.00,,,0.00,WUHU21636XXSP,2013-09-21 06:27:00,
2013-09-21 01:37:00,59.0,46.2,30.17,South,180,0.2,3.8,64,0.00,,,0.00,WUHU21636XXSP,2013-09-21 06:37:00,
2013-09-21 01:47:00,58.6,46.4,30.17,SW,225,3.1,5.1,64,0.00,,,0.00,WUHU21636XXSP,2013-09-21 06:47:00,
2013-09-21 01:57:00,58.5,46.2,30.17,SW,225,1.1,3.8,64,0.00,,,0.00,WUHU21636XXSP,2013-09-21 06:57:00,
2013-09-21 02:07:00,58.3,46.0,30.17,WSW,247,3.5,4.0,64,0.00,,,0.00,WUHU21636XXSP,2013-09-21 07:07:00,
2013-09-21 02:17:00,58.3,46.4,30.17,WSW,247,2.9,4.6,65,0.00,,,0.00,WUHU21636XXSP,2013-09-21 07:17:00,
2013-09-21 02:27:00,58.1,45.9,30.17,WSW,247,1.1,2.9,65,0.00,,,0.00,WUHU21636XXSP,2013-09-21 07:27:00,
2013-09-21 02:37:00,57.9,46.0,30.16,WSW,247,2.6,3.1,65,0.00,,,0.00,WUHU21636XXSP,2013-09-21 07:37:00,
2013-09-21 02:47:00,57.6,46.2,30.16,SW,225,4.4,4.4,66,0.00,,,0.00,WUHU21636XXSP,2013-09-21 07:47:00,
2013-09-21 02:57:00,57.2,45.9,30.16,WSW,247,3.5,4.4,66,0.00,,,0.00,WUHU21636XXSP,2013-09-21 07:57:00,
2013-09-21 03:07:00,57.0,45.7,30.16,WSW,247,0.8,3.5,67,0.00,,,0.00,WUHU21636XXSP,2013-09-21 08:07:00,
2013-09-21 03:17:00,57.0,46.0,30.16,WSW,247,1.3,4.2,67,0.00,,,0.00,WUHU21636XXSP,2013-09-21 08:17:00,
2013-09-21 03:27:00,56.8,45.9,30.15,SW,225,1.7,2.4,67,0.00,,,0.00,WUHU21636XXSP,2013-09-21 08:27:00,
2013-09-21 03:37:00,57.0,46.0,30.15,SW,225,0.0,2.9,68,0.00,,,0.00,WUHU21636XXSP,2013-09-21 08:37:00,
2013-09-21 03:47:00,57.0,46.0,30.15,SW,225,0.0,0.6,68,0.00,,,0.00,WUHU21636XXSP,2013-09-21 08:47:00,
2013-09-21 03:57:00,57.0,46.0,30.15,SW,225,0.0,0.0,68,0.00,,,0.00,WUHU21636XXSP,2013-09-21 08:57:00,
2013-09-21 04:07:00,57.0,46.0,30.15,SW,225,0.0,0.0,68,0.00,,,0.00,WUHU21636XXSP,2013-09-21 09:07:00,
2013-09-21 04:17:00,57.0,46.0,30.14,SW,225,0.0,0.0,68,0.00,,,0.00,WUHU21636XXSP,2013-09-21 09:17:00,
2013-09-21 04:27:00,56.8,45.9,30.14,SW,225,0.0,2.0,67,0.00,,,0.00,WUHU21636XXSP,2013-09-21 09:27:00,
2013-09-21 04:37:00,56.8,45.9,30.14,SW,225,0.0,0.0,68,0.00,,,0.00,WUHU21636XXSP,2013-09-21 09:37:00,
2013-09-21 04:47:00,56.8,45.9,30.14,SW,225,0.0,0.0,68,0.00,,,0.00,WUHU21636XXSP,2013-09-21 09:47:00,
2013-09-21 04:57:00,56.8,45.9,30.14,SW,225,0.0,0.0,67,0.00,,,0.00,WUHU21636XXSP,2013-09-21 09:57:00,
2013-09-21 05:07:00,56.5,45.5,30.14,SW,225,0.0,0.4,67,0.00,,,0.00,WUHU21636XXSP,2013-09-21 10:07:00,
2013-09-21 05:17:00,56.3,45.3,30.14,SW,225,1.7,1.7,67,0.00,,,0.00,WUHU21636XXSP,2013-09-21 10:17:00,
2013-09-21 05:27:00,56.1,45.7,30.14,SW,225,2.2,2.2,68,0.00,,,0.00,WUHU21636XXSP,2013-09-21 10:27:00,
2013-09-21 05:37:00,56.1,45.7,30.14,SW,225,1.7,2.2,69,0.00,,,0.00,WUHU21636XXSP,2013-09-21 10:37:00,
2013-09-21 05:47:00,55.9,45.9,30.14,SW,225,0.0,1.7,70,0.00,,,0.00,WUHU21636XXSP,2013-09-21 10:47:00,
2013-09-21 05:57:00,55.9,45.9,30.14,SW,225,0.0,0.0,70,0.00,,,0.00,WUHU21636XXSP,2013-09-21 10:57:00,
2013-09-21 06:07:00,55.8,46.0,30.14,SW,225,0.0,0.0,70,0.00,,,0.00,WUHU21636XXSP,2013-09-21 11:07:00,
2013-09-21 06:17:00,55.8,46.0,30.13,SW,225,0.0,1.5,70,0.00,,,0.00,WUHU21636XXSP,2013-09-21 11:17:00,
2013-09-21 06:27:00,55.8,46.0,30.13,SW,225,0.0,0.0,70,0.00,,,0.00,WUHU21636XXSP,2013-09-21 11:27:00,
2013-09-21 06:37:00,55.8,46.4,30.14,SW,225,0.0,0.0,71,0.00,,,0.00,WUHU21636XXSP,2013-09-21 11:37:00,
2013-09-21 06:47:00,55.8,46.4,30.14,SW,225,0.0,0.0,72,0.00,,,0.00,WUHU21636XXSP,2013-09-21 11:47:00,
2013-09-21 06:57:00,55.6,46.2,30.13,SW,225,0.0,0.0,72,0.00,,,0.00,WUHU21636XXSP,2013-09-21 11:57:00,
2013-09-21 07:08:00,55.6,46.2,30.14,SW,225,0.0,0.0,72,0.00,,,0.00,WUHU21636XXSP,2013-09-21 12:08:00,
2013-09-21 07:18:00,55.2,46.2,30.14,SW,225,0.0,0.0,72,0.00,,,0.00,WUHU21636XXSP,2013-09-21 12:18:00,
2013-09-21 07:28:00,55.0,46.0,30.14,SW,225,0.0,0.0,72,0.00,,,0.00,WUHU21636XXSP,2013-09-21 12:28:00,
2013-09-21 07:38:00,55.0,46.0,30.14,SW,225,0.0,0.0,73,0.00,,,0.00,WUHU21636XXSP,2013-09-21 12:38:00,
2013-09-21 07:48:00,54.9,46.2,30.14,SW,225,0.0,0.0,73,0.00,,,0.00,WUHU21636XXSP,2013-09-21 12:48:00,
2013-09-21 07:58:00,54.7,46.0,30.15,SW,225,0.0,0.0,73,0.00,,,0.00,WUHU21636XXSP,2013-09-21 12:58:00,
2013-09-21 08:08:00,54.7,46.0,30.15,SW,225,0.0,0.0,74,0.00,,,0.00,WUHU21636XXSP,2013-09-21 13:08:00,
2013-09-21 08:18:00,54.9,46.6,30.14,SW,225,0.0,0.0,74,0.00,,,0.00,WUHU21636XXSP,2013-09-21 13:18:00,
2013-09-21 08:28:00,54.9,46.6,30.14,SW,225,0.0,1.7,74,0.00,,,0.00,WUHU21636XXSP,2013-09-21 13:28:00,
2013-09-21 08:38:00,54.9,46.6,30.15,SW,225,0.0,0.0,74,0.00,,,0.00,WUHU21636XXSP,2013-09-21 13:38:00,
2013-09-21 08:48:00,55.0,47.1,30.14,SW,225,0.0,0.0,75,0.00,,,0.00,WUHU21636XXSP,2013-09-21 13:48:00,
2013-09-21 08:58:00,55.2,47.3,30.14,SW,225,2.6,2.9,75,0.00,,,0.00,WUHU21636XXSP,2013-09-21 13:58:00,
2013-09-21 09:08:00,55.6,48.0,30.14,SW,225,0.0,3.5,76,0.00,,,0.00,WUHU21636XXSP,2013-09-21 14:08:00,
2013-09-21 09:18:00,55.9,48.4,30.14,SW,225,1.3,1.3,76,0.00,,,0.00,WUHU21636XXSP,2013-09-21 14:18:00,
2013-09-21 09:28:00,56.3,48.7,30.14,SW,225,2.0,2.9,76,0.00,,,0.00,WUHU21636XXSP,2013-09-21 14:28:00,
2013-09-21 09:38:00,56.8,49.3,30.14,SW,225,1.5,2.9,76,0.00,,,0.00,WUHU21636XXSP,2013-09-21 14:38:00,
2013-09-21 09:48:00,57.6,49.6,30.14,SW,225,0.0,1.5,75,0.00,,,0.00,WUHU21636XXSP,2013-09-21 14:48:00,
2013-09-21 09:58:00,58.1,50.5,30.14,SW,225,2.9,3.1,76,0.00,,,0.00,WUHU21636XXSP,2013-09-21 14:58:00,
2013-09-21 10:08:00,59.0,51.4,30.14,SW,225,1.7,2.9,76,0.00,,,0.00,WUHU21636XXSP,2013-09-21 15:08:00,
2013-09-21 10:18:00,59.7,51.8,30.14,SW,225,2.0,2.4,75,0.00,,,0.00,WUHU21636XXSP,2013-09-21 15:18:00,
2013-09-21 10:28:00,61.3,53.2,30.14,WSW,247,2.6,3.8,75,0.00,,,0.00,WUHU21636XXSP,2013-09-21 15:28:00,
2013-09-21 10:38:00,62.2,53.4,30.14,SW,225,3.8,4.0,73,0.00,,,0.00,WUHU21636XXSP,2013-09-21 15:38:00,
2013-09-21 10:48:00,63.3,54.1,30.13,South,180,4.2,7.6,72,0.00,,,0.00,WUHU21636XXSP,2013-09-21 15:48:00,
2013-09-21 10:58:00,64.9,54.9,30.13,SSW,202,4.6,7.8,70,0.00,,,0.00,WUHU21636XXSP,2013-09-21 15:58:00,
2013-09-21 11:08:00,66.7,55.8,30.13,SSW,202,4.9,4.9,68,0.00,,,0.00,WUHU21636XXSP,2013-09-21 16:08:00,
2013-09-21 11:18:00,68.2,56.3,30.13,South,180,6.4,6.4,66,0.00,,,0.00,WUHU21636XXSP,2013-09-21 16:18:00,
2013-09-21 11:28:00,70.5,54.0,30.13,SSW,202,8.5,22.5,56,0.00,,,0.00,WUHU21636XXSP,2013-09-21 16:28:00,